Tracking 29969 objects as of 6-Dec-2024
HD Live streaming from Space Station
objects crossing your sky now

STARLINK-5437

Track STARLINK-5437 now!
10-day predictions
STARLINK-5437 is classified as:


NORAD ID: 54782
Int'l Code: 2022-175AA
Perigee: 255.1 km
Apogee: 260.9 km
Inclination: 53.2 °
Period: 89.5 minutes
Semi major axis: 6628 km
RCS: Unknown
Launch date: December 17, 2022
Source: United States (US)
Launch site: AIR FORCE EASTERN TEST RANGE (AFETR)
Your satellite tracking list
Your tracking list is empty




NASA's NSSDC Master Catalog

Two Line Element Set (TLE):
1 54782U 22175AA  24339.77128723  .00976355  54907-3  11173-2 0  9999
2 54782  53.1986 150.2798 0004412 287.9389 169.7586 16.08541156112721
Source of the keplerian elements: AFSPC